www.pogodaiklimat.ru
ПОГОДА в Манисти
Время
и дата
02:56 21.09
03:45 21.09
03:56 21.09
04:28 21.09
04:56 21.09
05:42 21.09
05:51 21.09
05:56 21.09
06:40 21.09
06:56 21.09
06:59 21.09
07:01 21.09
07:11 21.09
07:32 21.09
07:52 21.09
07:56 21.09
08:56 21.09
09:19 21.09
09:30 21.09
09:41 21.09
09:52 21.09
09:56 21.09
10:16 21.09
10:56 21.09
11:36 21.09
11:56 21.09
12:49 21.09
12:56 21.09
13:56 21.09
14:24 21.09
14:56 21.09
15:56 21.09
16:56 21.09
17:56 21.09
18:56 21.09
19:56 21.09
20:56 21.09
21:56 21.09
22:56 21.09
23:56 21.09
00:56 22.09
01:56 22.09
02:56 22.09
03:56 22.09
04:56 22.09
05:09 22.09
05:56 22.09
06:17 22.09
Ветер
(напр.,м/с)
Видим. Явления Облачность Т
(С)
Тd
(С)
f
(%)
Тe
(С)
Тes
(С)
Комфортность P
(гПа)
Po
(гПа)
Тmin
(С)
Tmax
(С)
R
(мм)
R24
(мм)
S
(см)
Ю 2 16 км гроза, дождь 10/2 1200 м
[Ac]
+18.9 +18.9 100 +20 +20 1009.5 987.3
ЮВ 1 13 км слабый дождь 10/10 570 м +19.0 +19.0 100 +21 +21 комфорт 986.9
ЮВ 1 16 км слабый дождь 10/10 570 м +18.9 +18.9 100 +21 +21 комфорт 1008.7 986.6 9.1
ЮВ 1 16 км слабый дождь 10/8 720 м
[Ac]
+19.0 +19.0 100 +21 +21 комфорт 986.3
ЮВ 1 16 км слабый дождь 10/10 510 м +18.9 +18.9 100 +21 +21 комфорт 1008.7 986.3
ЮЗ 2 16 км слабый дождь 10/10 360 м +19.0 +19.0 100 +21 +21 комфорт 986.9
З 2 16 км слабый дождь 10/10 240 м +19.0 +19.0 100 +21 +21 комфорт 987.3
З 2
{4}
16 км дождь 10/10 240 м +20.0 +20.0 100 +23 +23 комфорт 1009.7 987.3
З 3
{5}
3 км слабый дождь, дымка 10/10 180 м +18.0 +18.0 100 +17 +17 988.9
З 3
{5}
3 км дождь, дымка 10/10 240 м +17.2 +17.2 100 +16 +16 1011.6 989.3 +17.2 +22.8 12.7 16.3
СЗ 3
{5}
3 км дождь, дымка 10/10 240 м +17.0 +17.0 100 +16 +16 989.3
З 3
{5}
3 км слабый дождь, дымка 10/10 180 м +17.0 +17.0 100 +16 +16 989.3
СЗ 3
{4}
8 км дождь, дымка 10/10 300 м +17.0 +17.0 100 +16 +16 989.6
З 3
{4}
5 км слабый дождь, дымка 10/10 240 м +17.0 +17.0 100 +16 +16 989.9
СЗ 2 16 км слабый дождь 10/10 480 м +17.0 +17.0 100 +16 +16 990.3
СЗ 3 16 км слабый дождь 10/10 480 м +17.2 +17.2 100 +16 +16 1012.7 990.3
З 2 16 км 10/10 660 м +17.2 +16.1 93 +17 +17 1014.1 991.9
З 3 8 км дымка н/о +17.0 +16.0 94 +16 +16 992.2
З 3 2 км дымка н/о +17.0 +16.0 94 +16 +16 992.6
СЗ 3 0 м н/о +18.0 +16.0 88 +17 +17 992.6
З 4 3 км дымка 10/10 570 м +18.0 +16.0 88 +17 +17 992.9
З 3 2 км дымка 10/10 570 м +17.8 +15.6 87 +17 +17 1015.2 992.9 2.8
СЗ 3
{4}
14 км 10/10 630 м +18.0 +15.0 83 +17 +17 993.2
СЗ 4
{4}
16 км 10/10 750 м +17.2 +12.8 75 +16 +16 1016.5 993.9
СЗ 2 16 км 10/10 930 м +18.0 +13.0 73 +18 +18 994.6
СЗ 2 16 км 10/10 990 м +17.8 +12.8 73 +18 +18 1017.1 994.6
СЗ 2
{4}
16 км 10/10 840 м +17.0 +13.0 77 +16 +16 995.2
СЗ 3 16 км 10/10 780 м +17.2 +12.8 75 +16 +16 1017.8 995.2 +16.7 +18.3 2.8
СЗ 1 16 км 10/10 840 м +17.8 +12.8 73 +18 +18 1018.1 995.5
С 3
{5}
16 км 10/10 840 м +18.0 +12.0 68 +17 +17 996.2
С 3
{4}
16 км 10/10 900 м +17.2 +11.7 70 +16 +16 1019.0 996.2
С 1 16 км 8/8 840 м +17.2 +12.2 72 +17 +18 1019.0 996.2
С 2 16 км 10/10 1410 м +16.7 +12.2 75 +16 +16 1019.5 996.9
С 2 16 км ясно +16.1 +11.7 75 +15 +17 1020.3 997.5
СВ 1 16 км 2/0 3600 м
[Ac]
+15.6 +11.7 78 +15 +15 1020.3 997.5 +15.6 +18.3
С 1 16 км слабый дождь 8/0 2100 м
[Ac]
+15.0 +11.7 81 +15 +15 1020.9 997.9
В 1 16 км ясно +14.4 +11.1 81 +14 +14 1021.9 999.2
СВ 1 16 км 2/2 1170 м +14.4 +11.1 81 +13 +13 1022.1 999.2
СВ 1 16 км ясно +14.4 +10.6 78 +13 +13 1022.4 999.5
штиль 0 16 км ясно +13.9 +10.6 80 +14 +14 1022.9 999.9
С 1 16 км ясно +13.3 +10.0 80 +12 +12 1022.0 999.2 +13.3 +15.6
С 2 16 км ясно +13.3 +9.4 77 +12 +12 1020.3 997.2
С 1 16 км ясно +13.3 +9.4 77 +12 +12 1020.9 997.9
С 1 16 км ясно +13.3 +10.0 80 +12 +12 1020.3 997.5
С 2 16 км 5/5 870 м +13.3 +10.0 80 +12 +12 1020.0 997.2
СВ 1 16 км 8/8 810 м +13.0 +11.0 88 +12 +12 997.9
С 1 16 км 10/10 810 м +13.3 +10.0 80 +12 +12 1021.2 998.5
СВ 1 16 км 5/5 870 м +13.0 +10.0 82 +12 +12 998.5
Местоположение метеостанции Manistee County-Blacker Airport: широта 44.2667 долгота -86.2500 высота над уровнем моря 189 м.
В архиве по умолчанию представлена погода в Манисти за последние 1-2 суток. Обновление информации о фактической погоде в базе происходит ежечасно! Архивные данные за месяц целиком и за предыдущие месяцы Вы можете получить, выбрав интересующий диапазон дат из раскрывающегося списка и нажав кнопку "Ввод!".
Внимание! Архив погоды МЕТАР в базе сайта по станциям, не включенным в климатический монитор, хранится не более 60 дней. Нет смысла пытаться выбрать более раннюю дату.
*Определитесь, кто Вы:
Внимание! Время в таблицах - местное (без учета летнего времени). Для получения всемирного времени необходимо вычесть поправку, которая равна -5 ч.
Смотрите также архив погоды в соседних городах и на ближайших метеорологических станциях:
Партнеры нашего сайта:      
Пояснения к столбцам:
  • Ветер - указаны скорость ветра в м/с - средняя за 10 мин, порывы в срок и между сроками (в фигурных скобках) и направление, откуда дует ветер: С - северный,
  • СВ - северо-восточный, В - восточный, ЮВ - юго-восточный, Ю - южный, ЮЗ - юго-западный, З - западный, СЗ - северо-западный.
  • Видимость - горизонтальная дальность видимости в метрах или километрах. При видимости от 1 до 10 км при отсутствии осадков обычно наблюдается дымка, при ухудшении видимости до 1 км и менее - туман. В сухую погоду видимость может ухудшаться дымом, пылью или мглою.
  • Явления - указаны атмосферные явления, наблюдавшиеся в срок или в последний час перед сроком; фигурными скобками обозначены явления, наблюдавшиеся между сроками (за 1-3 часа до срока); квадратными скобками обозначены град или гололедные отложения с указанием их диаметра в мм.
  • Облачность - указаны через наклонную черту общая и нижняя облачность в баллах и высота нижней границы облаков в метрах; квадратными скобками обозначены формы облаков: Ci - перистые, Cs - перисто-слоистые, Cc - перисто-кучевые, Ac - высококучевые, As - высокослоистые, Sc - слоисто-кучевые, Ns - слоисто-дождевые, Cu - кучевые, Cb - кучево-дождевые. Подробнее классификацию облаков см. в Атласе облаков (PDF).
  • T - Температура воздуха - температура, измеренная на высоте 2 м над землей.
  • Td - Температура точки росы - температура, при понижении до которой содержащийся в воздухе водяной пар достигнет насыщения.
  • f - Относительная влажность воздуха - влажноcть воздуха, измеренная на высоте 2 м над землей.
  • Te - Эффективная температура - температура, которую ощущает одетый по сезону человек в тени. Характеристика душности погоды. При расчете учитывается влияние влажности воздуха и скорости ветра на теплоощущения человека.
  • Tes - Эффективная температура на солнце - температура, которую ощущает человек, с поправкой на солнечный нагрев. Характеристика знойности погоды. Зависит от высоты солнца над горизонтом, облачности и скорости ветра. Ночью, в пасмурную погоду, а также при ветре 12 м/с и более поправка равна нулю.
  • P - Атмосферное давление - приведенное к уровню моря атмосферное давление.
  • Po - Атмосферное давление - измеренное на уровне метеостанции атмосферное давление.
  • Tmin - Минимальная температура - минимум температуры воздуха на высоте 2 м над землей.
  • Tmax - Максимальная температура - максимум температуры воздуха на высоте 2 м над землей.
  • R - Количество осадков - Количество выпавших осадков за период времени, мм. При наведении курсора мыши на число - период времени, за который выпало указанное количество осадков.
  • R24 - Количество осадков - Количество выпавших осадков за 24 часа, мм.
  • S - Снежный покров - Высота снежного покрова, см. При наведении курсора мыши на число - состояние снежного покрова и степень покрытия местности в баллах.